Wahpeton, MN

3:34 PM CDT on October 19, 2019 (GMT -0500)
Stern

Weather History for KBWP - August, 2019

Change the Weather History Date:

Monday, August 26, 2019

  Actual Average (WUND) Record (WUND)
Temperature  
Mean Temperature 65 °F -  
Max Temperature 73 °F - - (-1)
Min Temperature 57 °F - - (-1)
Growing Degree Days 15 (Base 50)    
Moisture  
Dew Point 58 °F    
Average Humidity 79    
Maximum Humidity 94    
Minimum Humidity 47    
Precipitation  
Precipitation 0.00 in - - ()
Sea Level Pressure  
Sea Level Pressure 29.73 in    
Wind  
Wind Speed 9 mph ()    
Max Wind Speed 22 mph    
Max Gust Speed 28 mph    
Visibility 9.2 miles    
Events      
Averages and records for this station are not official NWS values.
T = Trace of Precipitation, MM = Missing Value Source: Averaged Metar Reports

Daily Weather History Graph

Daily Weather History Graph

Search for Another Location

Airport or City:

Astronomy

Aug. 26, 2019 Rise Set
Actual Time 6:39 AM CDT 8:16 PM CDT
Civil Twilight 6:07 AM CDT 8:48 PM CDT
Nautical Twilight 5:28 AM CDT 9:26 PM CDT
Astronomical Twilight 4:47 AM CDT 10:07 PM CDT
Moon 1:52 AM CDT (8/26) 5:53 PM CDT (8/26)
Length of Visible Light 14h 40m
Length of Day
13h 37m
Waning Crescent, 19% of the Moon is Illuminated
Aug 26
Waning Crescent
Aug 30
New
Sep 5
First Quarter
Sep 13
Full
Sep 21
Last Quarter

Hourly Weather History & Observations

Time (CDT) Temp. Dew Point Humidity Pressure Visibility Wind Dir Wind Speed Gust Speed Precip Events Conditions
12:15 AM 64.4 °F 59.0 °F 83% 29.80 in 2.0 mi South 8.1 mph - N/A   Unknown
12:35 AM 62.6 °F 60.8 °F 94% 29.79 in 5.0 mi South 9.2 mph - N/A   Unknown
12:55 AM 62.6 °F 60.8 °F 94% 29.79 in 7.0 mi South 9.2 mph - N/A   Unknown
1:15 AM 62.6 °F 60.8 °F 94% 29.79 in 7.0 mi South 5.8 mph - N/A   Unknown
1:35 AM 62.6 °F 59.0 °F 88% 29.77 in 10.0 mi SSE 5.8 mph - N/A   Unknown
1:55 AM 62.6 °F 59.0 °F 88% 29.74 in 10.0 mi SE 9.2 mph - N/A   Unknown
2:15 AM 62.6 °F 59.0 °F 88% 29.73 in 10.0 mi SE 8.1 mph - N/A   Unknown
2:35 AM 62.6 °F 59.0 °F 88% 29.74 in 10.0 mi South 9.2 mph - N/A   Unknown
2:55 AM 62.6 °F 59.0 °F 88% 29.76 in 10.0 mi South 8.1 mph - N/A   Unknown
3:15 AM 60.8 °F 59.0 °F 94% 29.76 in 10.0 mi South 9.2 mph - N/A   Unknown
3:35 AM 62.6 °F 59.0 °F 88% 29.75 in 10.0 mi South 10.4 mph - N/A   Unknown
3:55 AM 62.6 °F 59.0 °F 88% 29.76 in 10.0 mi South 10.4 mph - N/A   Unknown
4:15 AM 62.6 °F 60.8 °F 94% 29.75 in 10.0 mi SSE 11.5 mph - N/A   Unknown
4:35 AM 62.6 °F 60.8 °F 94% 29.74 in 10.0 mi SSE 9.2 mph - N/A   Unknown
4:55 AM 62.6 °F 60.8 °F 94% 29.73 in 10.0 mi SSE 6.9 mph - N/A   Unknown
5:15 AM 62.6 °F 60.8 °F 94% 29.72 in 10.0 mi SSE 4.6 mph - N/A   Unknown
5:35 AM 62.6 °F 60.8 °F 94% 29.71 in 10.0 mi SE 6.9 mph - N/A   Unknown
5:55 AM 62.6 °F 60.8 °F 94% 29.72 in 10.0 mi SE 5.8 mph - N/A   Unknown
6:15 AM 62.6 °F 60.8 °F 94% 29.72 in 10.0 mi SSE 8.1 mph - N/A   Unknown
6:35 AM 62.6 °F 60.8 °F 94% 29.71 in 5.0 mi SSE 8.1 mph - N/A   Unknown
6:55 AM 62.6 °F 60.8 °F 94% 29.70 in 10.0 mi SE 9.2 mph - N/A   Unknown
7:15 AM 62.6 °F 60.8 °F 94% 29.70 in 7.0 mi SSE 6.9 mph - N/A   Unknown
7:35 AM 62.6 °F 60.8 °F 94% 29.71 in 7.0 mi SSE 8.1 mph - N/A   Unknown
7:55 AM 62.6 °F 60.8 °F 94% 29.70 in 2.0 mi South 6.9 mph - N/A   Unknown
8:15 AM 62.6 °F 60.8 °F 94% 29.70 in 7.0 mi SSE 5.8 mph - N/A   Unknown
8:35 AM 62.6 °F 60.8 °F 94% 29.70 in 4.0 mi South 6.9 mph - N/A   Unknown
8:55 AM 62.6 °F 60.8 °F 94% 29.70 in 7.0 mi SSW 6.9 mph - N/A   Unknown
9:15 AM 62.6 °F 60.8 °F 94% 29.70 in 7.0 mi SSW 4.6 mph - N/A   Unknown
9:35 AM 64.4 °F 62.6 °F 94% 29.70 in 10.0 mi SW 5.8 mph - N/A   Unknown
9:55 AM 64.4 °F 62.6 °F 94% 29.70 in 10.0 mi WSW 9.2 mph - N/A   Unknown
10:15 AM 64.4 °F 62.6 °F 94% 29.72 in 10.0 mi West 8.1 mph - N/A   Unknown
10:35 AM 66.2 °F 62.6 °F 88% 29.71 in 10.0 mi West 6.9 mph - N/A   Unknown
10:55 AM 66.2 °F 62.6 °F 88% 29.72 in 10.0 mi West 8.1 mph - N/A   Unknown
11:15 AM 66.2 °F 60.8 °F 83% 29.72 in 10.0 mi West 13.8 mph - N/A   Unknown
11:35 AM 68.0 °F 60.8 °F 78% 29.72 in 10.0 mi West 10.4 mph - N/A   Unknown
11:55 AM 68.0 °F 60.8 °F 78% 29.72 in 10.0 mi West 16.1 mph - N/A   Unknown
12:15 PM 69.8 °F 60.8 °F 73% 29.72 in 10.0 mi West 13.8 mph - N/A   Unknown
12:35 PM 69.8 °F 59.0 °F 68% 29.72 in 10.0 mi WNW 17.3 mph 23.0 mph N/A   Unknown
12:55 PM 69.8 °F 59.0 °F 68% 29.72 in 10.0 mi WNW 13.8 mph 18.4 mph N/A   Unknown
1:15 PM 69.8 °F 59.0 °F 68% 29.72 in 10.0 mi WNW 15.0 mph 20.7 mph N/A   Unknown
1:55 PM 71.6 °F 59.0 °F 64% 29.71 in 10.0 mi WNW 15.0 mph 21.9 mph N/A   Unknown
2:15 PM 71.6 °F 55.4 °F 57% 29.71 in 10.0 mi WNW 12.7 mph - N/A   Unknown
2:35 PM 71.6 °F 57.2 °F 60% 29.70 in 10.0 mi WNW 11.5 mph 17.3 mph N/A   Unknown
2:55 PM 73.4 °F 55.4 °F 53% 29.70 in 10.0 mi WNW 17.3 mph 27.6 mph N/A   Unknown
3:15 PM 73.4 °F 55.4 °F 53% 29.69 in 10.0 mi WNW 17.3 mph - N/A   Unknown
3:35 PM 73.4 °F 55.4 °F 53% 29.69 in 10.0 mi WNW 18.4 mph 23.0 mph N/A   Unknown
3:55 PM 73.4 °F 55.4 °F 53% 29.69 in 10.0 mi WNW 16.1 mph 23.0 mph N/A   Unknown
4:15 PM 71.6 °F 55.4 °F 57% 29.69 in 10.0 mi WNW 16.1 mph 20.7 mph N/A   Unknown
4:35 PM 73.4 °F 53.6 °F 50% 29.69 in 10.0 mi WNW 21.9 mph 25.3 mph N/A   Unknown
4:55 PM 73.4 °F 53.6 °F 50% 29.69 in 10.0 mi WNW 19.6 mph 25.3 mph N/A   Unknown
5:15 PM 73.4 °F 51.8 °F 47% 29.69 in 10.0 mi WNW 18.4 mph 26.5 mph N/A   Unknown
5:35 PM 73.4 °F 51.8 °F 47% 29.69 in 10.0 mi NW 16.1 mph 26.5 mph N/A   Unknown
5:55 PM 73.4 °F 53.6 °F 50% 29.69 in 10.0 mi WNW 20.7 mph 25.3 mph N/A   Unknown
6:15 PM 69.8 °F 53.6 °F 56% 29.71 in 10.0 mi NNW 9.2 mph 16.1 mph N/A   Unknown
6:55 PM 64.4 °F 55.4 °F 73% 29.73 in 10.0 mi North 6.9 mph - N/A   Unknown
7:15 PM 64.4 °F 55.4 °F 73% 29.74 in 10.0 mi North 4.6 mph - N/A   Unknown
7:35 PM 64.4 °F 55.4 °F 73% 29.73 in 10.0 mi North 4.6 mph - N/A   Unknown
7:55 PM 62.6 °F 55.4 °F 77% 29.73 in 10.0 mi West 3.5 mph - N/A   Unknown
8:15 PM 60.8 °F 55.4 °F 82% 29.74 in 10.0 mi WSW 3.5 mph - N/A   Unknown
8:35 PM 60.8 °F 57.2 °F 88% 29.76 in 10.0 mi NNE 5.8 mph - N/A   Unknown
8:55 PM 62.6 °F 53.6 °F 72% 29.77 in 10.0 mi North 9.2 mph - N/A   Unknown
9:15 PM 62.6 °F 51.8 °F 68% 29.77 in 10.0 mi NW 8.1 mph - N/A   Unknown
9:35 PM 60.8 °F 50.0 °F 68% 29.76 in 10.0 mi NW 5.8 mph - N/A   Unknown
9:55 PM 59.0 °F 51.8 °F 77% 29.76 in 10.0 mi WNW 3.5 mph - N/A   Unknown
10:15 PM 57.2 °F 51.8 °F 82% 29.76 in 10.0 mi SW 3.5 mph - N/A   Unknown
10:35 PM 57.2 °F 51.8 °F 82% 29.76 in 10.0 mi Calm Calm - N/A   Unknown
10:55 PM 57.2 °F 51.8 °F 82% 29.76 in 10.0 mi Calm Calm - N/A   Unknown
11:15 PM 57.2 °F 53.6 °F 88% 29.76 in 10.0 mi SW 10.4 mph - N/A   Unknown
11:35 PM 57.2 °F 53.6 °F 88% 29.76 in 10.0 mi West 6.9 mph - N/A   Unknown
11:55 PM 59.0 °F 53.6 °F 82% 29.76 in 10.0 mi West 6.9 mph - N/A   Unknown